map of KTE home
Great Circle Mapper logo
KTE - Airport
Location
City:  Kerteh, Terengganu, Malaysia
ICAO / IATA:WMKE / KTE

Details
Type:Airport (Aerodrome, Airfield)
Latitude:432'14"N (4.537222)
Longitude:10325'36"E (103.426756)
Datum:WGS 1984
Elevation:18 ft (5 m)
Runways:1
Longest:4446 × 98 ft (1355 × 30 m), paved

Time
Time Zone:UTC+8
Local Time:

Weather
METAR:WMKE 201000Z 07003KT 9999 FEW017CB BKN270 29/25 Q1008
TAF:WMKE 200500Z 2006/2106 08005KT 9999 FEW017CB SCT140 BKN280
TEMPO 2008/2012 4000 TSRA FEW015CB SCT018

Related Locations
Nearby:
Farthest:SPGB: 12357 mi / 19886 km
Galilea, PE

Find:

   beyond  
but within

Other Information
Maps:
NOTAMs:
Links:
Sources:

  
flag of Malaysia   

Sectional Chart

Flight Planning
at skyvector.com

Satellite Image

Google Maps Satellite View

 

Copyright © 2004-2014 Karl L. Swartz. All rights reserved.
The Great Circle Mapper name and logo are trademarks of the Great Circle Mapper.
All other trademarks mentioned herein belong to their respective owners.
Please see credits for attibutions and further copyright information.

  Follow gcmap on Facebook Follow gcmap on Twitter

hCard Microformat

Geo Microformat